LAN705 SAME-SEGU

Flight info

Callsign LAN705
Flight time 4h 41m
Altitude 34000
Route MEBRA2G MEBRA UW3 JUA DCT DAT DCT RONUV DCT ASEPU/N0456F360 UL302 JCL UL308 ATATU UV1 TRU UL780 EVRED
Aircraft A320/M-SDE3FGHIRWY/LB1

Departure

Time 2026-04-07 13:19
Airport Governor Francisco Gabrielli International Airport (SAME)

Arrival

Time 2026-04-07 18:00
Airport José Joaquín de Olmedo International Airport (SEGU)
Time Latitude Longitude Altitude Speed Heading
2026-04-07 12:48 -32.82786 -68.79775 2328 ft 0 kts 251°
2026-04-07 13:11 -32.82784 -68.79770 2326 ft 3 kts 258°
2026-04-07 13:11 -32.82781 -68.79763 2327 ft 4 kts 338°
2026-04-07 13:12 -32.82795 -68.79745 2327 ft 4 kts 293°
2026-04-07 13:12 -32.82809 -68.79718 2330 ft 4 kts 321°
2026-04-07 13:12 -32.82830 -68.79707 2327 ft 2 kts 357°
2026-04-07 13:12 -32.82835 -68.79707 2327 ft 0 kts 357°
2026-04-07 13:15 -32.82834 -68.79707 2327 ft 0 kts 357°
2026-04-07 13:15 -32.82827 -68.79707 2327 ft 2 kts 357°
2026-04-07 13:15 -32.82800 -68.79708 2326 ft 6 kts 358°
2026-04-07 13:15 -32.82743 -68.79708 2326 ft 10 kts
2026-04-07 13:16 -32.82674 -68.79673 2328 ft 13 kts 73°
2026-04-07 13:16 -32.82663 -68.79547 2328 ft 16 kts 72°
2026-04-07 13:16 -32.82562 -68.79502 2328 ft 19 kts
2026-04-07 13:16 -32.82417 -68.79499 2328 ft 23 kts
2026-04-07 13:17 -32.82248 -68.79496 2329 ft 25 kts
2026-04-07 13:17 -32.82075 -68.79492 2329 ft 25 kts
2026-04-07 13:17 -32.81915 -68.79457 2329 ft 22 kts 41°
2026-04-07 13:17 -32.81938 -68.79315 2327 ft 18 kts 129°
2026-04-07 13:18 -32.82058 -68.79269 2328 ft 24 kts 178°
2026-04-07 13:18 -32.82437 -68.79275 2331 ft 87 kts 181°
2026-04-07 13:18 -32.83267 -68.79291 2328 ft 150 kts 181°
2026-04-07 13:18 -32.84422 -68.79315 2617 ft 174 kts 181°
2026-04-07 13:19 -32.85638 -68.79325 3359 ft 175 kts 181°
2026-04-07 13:19 -32.86867 -68.79339 3838 ft 181 kts 181°
2026-04-07 13:19 -32.88198 -68.79356 3984 ft 201 kts 181°
2026-04-07 13:19 -32.89678 -68.79377 4111 ft 225 kts 180°
2026-04-07 13:20 -32.91270 -68.79017 4315 ft 246 kts 149°
2026-04-07 13:20 -32.92465 -68.77505 4579 ft 263 kts 111°
2026-04-07 13:20 -32.92772 -68.76100 4921 ft 268 kts 94°
2026-04-07 13:20 -32.92798 -68.73866 5601 ft 272 kts 85°
2026-04-07 13:21 -32.92651 -68.71609 6330 ft 275 kts 85°
2026-04-07 13:21 -32.92467 -68.68571 7237 ft 281 kts 87°
2026-04-07 13:21 -32.92399 -68.66232 7909 ft 285 kts 90°
2026-04-07 13:21 -32.92391 -68.63863 8585 ft 288 kts 92°
2026-04-07 13:22 -32.92413 -68.62241 9035 ft 291 kts 92°
2026-04-07 13:22 -32.92320 -68.59847 9684 ft 297 kts 81°
2026-04-07 13:22 -32.91723 -68.57474 10293 ft 302 kts 66°
2026-04-07 13:22 -32.90679 -68.55215 10523 ft 323 kts 60°
2026-04-07 13:23 -32.89497 -68.52833 10643 ft 344 kts 60°
2026-04-07 13:23 -32.88242 -68.50329 10905 ft 358 kts 61°
2026-04-07 13:23 -32.86949 -68.47766 11425 ft 364 kts 61°
2026-04-07 13:23 -32.85489 -68.45279 11970 ft 370 kts 50°
2026-04-07 13:24 -32.83556 -68.43225 12530 ft 377 kts 35°
2026-04-07 13:24 -32.81224 -68.41765 13073 ft 383 kts 20°
2026-04-07 13:24 -32.78626 -68.41020 13597 ft 387 kts
2026-04-07 13:24 -32.75928 -68.40747 14105 ft 391 kts
2026-04-07 13:25 -32.73203 -68.40480 14585 ft 394 kts
2026-04-07 13:25 -32.70494 -68.40210 15086 ft 396 kts
2026-04-07 13:25 -32.67737 -68.39934 15599 ft 398 kts
2026-04-07 13:25 -32.64968 -68.39651 16106 ft 400 kts
2026-04-07 13:26 -32.62189 -68.39366 16609 ft 402 kts
2026-04-07 13:26 -32.59392 -68.39077 17117 ft 404 kts
2026-04-07 13:26 -32.56583 -68.38788 17628 ft 406 kts
2026-04-07 13:26 -32.53757 -68.38501 18146 ft 408 kts
2026-04-07 13:27 -32.50921 -68.38214 18651 ft 410 kts
2026-04-07 13:27 -32.48067 -68.37924 19094 ft 413 kts
2026-04-07 13:27 -32.45195 -68.37635 19554 ft 415 kts
2026-04-07 13:27 -32.42306 -68.37347 20014 ft 418 kts
2026-04-07 13:28 -32.39396 -68.37059 20471 ft 421 kts
2026-04-07 13:28 -32.36464 -68.36766 20942 ft 423 kts
2026-04-07 13:28 -32.33556 -68.36474 21385 ft 426 kts
2026-04-07 13:28 -32.30597 -68.36175 21817 ft 428 kts
2026-04-07 13:29 -32.27615 -68.35873 22218 ft 431 kts
2026-04-07 13:29 -32.24606 -68.35567 22609 ft 434 kts
2026-04-07 13:29 -32.21584 -68.35263 23008 ft 437 kts
2026-04-07 13:29 -32.18545 -68.34959 23403 ft 439 kts
2026-04-07 13:30 -32.15485 -68.34657 23780 ft 442 kts
2026-04-07 13:30 -32.12409 -68.34352 24104 ft 444 kts
2026-04-07 13:30 -32.09316 -68.34043 24425 ft 446 kts
2026-04-07 13:30 -32.06208 -68.33837 24741 ft 446 kts 355°
2026-04-07 13:31 -32.03163 -68.34146 25043 ft 444 kts 348°
2026-04-07 13:31 -32.00098 -68.34682 25349 ft 446 kts 348°
2026-04-07 13:31 -31.97010 -68.35219 25660 ft 448 kts 348°
2026-04-07 13:31 -31.93923 -68.35754 25961 ft 450 kts 348°
2026-04-07 13:32 -31.90817 -68.36287 26258 ft 452 kts 348°
2026-04-07 13:32 -31.87703 -68.36817 26558 ft 453 kts 348°
2026-04-07 13:32 -31.84574 -68.37349 26857 ft 455 kts 348°
2026-04-07 13:32 -31.81433 -68.37886 27148 ft 457 kts 348°
2026-04-07 13:33 -31.78274 -68.38426 27421 ft 459 kts 347°
2026-04-07 13:33 -31.71899 -68.39506 27952 ft 464 kts 347°
2026-04-07 13:33 -31.68700 -68.40047 28295 ft 464 kts 347°
2026-04-07 13:34 -31.65508 -68.40588 28716 ft 463 kts 347°
2026-04-07 13:34 -31.62325 -68.41128 29152 ft 462 kts 347°
2026-04-07 13:34 -31.59147 -68.41675 29556 ft 460 kts 345°
2026-04-07 13:34 -31.56105 -68.42549 29949 ft 453 kts 336°
2026-04-07 13:35 -31.53213 -68.43948 30298 ft 447 kts 328°
2026-04-07 13:35 -31.50418 -68.45567 30611 ft 447 kts 328°
2026-04-07 13:35 -31.47631 -68.47180 30951 ft 446 kts 328°
2026-04-07 13:35 -31.44851 -68.48784 31304 ft 445 kts 328°
2026-04-07 13:36 -31.42076 -68.50382 31660 ft 443 kts 328°
2026-04-07 13:36 -31.39308 -68.51973 32014 ft 442 kts 328°
2026-04-07 13:36 -31.36548 -68.53557 32371 ft 441 kts 328°
2026-04-07 13:36 -31.33800 -68.55131 32751 ft 439 kts 328°
2026-04-07 13:37 -31.31057 -68.56703 33111 ft 437 kts 328°
2026-04-07 13:37 -31.28328 -68.58265 33476 ft 436 kts 327°
2026-04-07 13:37 -31.25605 -68.59820 33838 ft 435 kts 327°
2026-04-07 13:37 -31.22889 -68.61374 34128 ft 435 kts 327°
2026-04-07 13:38 -31.17449 -68.64505 34183 ft 444 kts 327°
2026-04-07 13:38 -31.11864 -68.67707 34182 ft 449 kts 327°
2026-04-07 13:39 -31.06239 -68.70911 34167 ft 450 kts 327°
2026-04-07 13:39 -31.00604 -68.74114 34182 ft 451 kts 327°
2026-04-07 13:40 -30.94960 -68.77333 34190 ft 452 kts 327°
2026-04-07 13:40 -30.89299 -68.80553 34195 ft 452 kts 327°
2026-04-07 13:41 -30.83646 -68.83753 34196 ft 452 kts 327°
2026-04-07 13:41 -30.77992 -68.86950 34178 ft 451 kts 327°
2026-04-07 13:42 -30.72380 -68.90130 34192 ft 451 kts 327°
2026-04-07 13:42 -30.66734 -68.93330 34200 ft 451 kts 327°
2026-04-07 13:43 -30.61082 -68.96521 34202 ft 451 kts 327°
2026-04-07 13:43 -30.55467 -68.99680 34192 ft 451 kts 327°
2026-04-07 13:44 -30.49787 -69.02879 34195 ft 451 kts 327°
2026-04-07 13:44 -30.44179 -69.06034 34199 ft 451 kts 327°
2026-04-07 13:45 -30.38533 -69.09200 34201 ft 451 kts 327°
2026-04-07 13:45 -30.32883 -69.12368 34186 ft 451 kts 327°
2026-04-07 13:46 -30.27237 -69.15531 34194 ft 451 kts 327°
2026-04-07 13:46 -30.21589 -69.18697 34197 ft 451 kts 327°
2026-04-07 13:47 -30.15944 -69.21858 34200 ft 450 kts 327°
2026-04-07 13:47 -30.10306 -69.25009 34182 ft 450 kts 327°
2026-04-07 13:48 -30.04664 -69.28157 34184 ft 450 kts 327°
2026-04-07 13:48 -29.99051 -69.31271 34193 ft 450 kts 327°
2026-04-07 13:49 -29.93391 -69.34402 34192 ft 450 kts 327°
2026-04-07 13:49 -29.87734 -69.37541 34198 ft 451 kts 327°
2026-04-07 13:50 -29.82087 -69.40681 34197 ft 450 kts 327°
2026-04-07 13:50 -29.76433 -69.43823 34194 ft 451 kts 327°
2026-04-07 13:51 -29.70777 -69.46961 34195 ft 452 kts 327°
2026-04-07 13:51 -29.65130 -69.50066 34197 ft 452 kts 327°
2026-04-07 13:52 -29.59458 -69.53197 34206 ft 452 kts 327°
2026-04-07 13:52 -29.53790 -69.56317 34219 ft 451 kts 327°
2026-04-07 13:53 -29.48128 -69.59424 34216 ft 450 kts 327°
2026-04-07 13:53 -29.42489 -69.62532 34216 ft 449 kts 327°
2026-04-07 13:54 -29.36892 -69.65615 34218 ft 449 kts 327°
2026-04-07 13:54 -29.31254 -69.68701 34210 ft 448 kts 327°
2026-04-07 13:55 -29.25622 -69.71788 34213 ft 448 kts 327°
2026-04-07 13:55 -29.19989 -69.74874 34215 ft 448 kts 327°
2026-04-07 13:56 -29.14355 -69.77946 34214 ft 448 kts 327°
2026-04-07 13:56 -29.08724 -69.81012 34200 ft 448 kts 327°
2026-04-07 13:57 -29.03126 -69.84067 34187 ft 448 kts 327°
2026-04-07 13:57 -28.97504 -69.87137 34196 ft 448 kts 327°
2026-04-07 13:58 -28.91881 -69.90192 34208 ft 447 kts 327°
2026-04-07 13:58 -28.86250 -69.93240 34210 ft 447 kts 327°
2026-04-07 13:59 -28.80665 -69.96255 34183 ft 446 kts 327°
2026-04-07 13:59 -28.75058 -69.99297 34179 ft 446 kts 327°
2026-04-07 14:00 -28.69458 -70.02341 34181 ft 446 kts 327°
2026-04-07 14:00 -28.63848 -70.05373 34181 ft 446 kts 327°
2026-04-07 14:01 -28.58237 -70.08407 34122 ft 446 kts 327°
2026-04-07 14:01 -28.52632 -70.11425 34130 ft 446 kts 327°
2026-04-07 14:02 -28.47029 -70.14441 34131 ft 445 kts 327°
2026-04-07 14:02 -28.41427 -70.17452 34121 ft 445 kts 327°
2026-04-07 14:03 -28.35836 -70.20461 34087 ft 445 kts 327°
2026-04-07 14:03 -28.30243 -70.23460 34070 ft 444 kts 327°
2026-04-07 14:04 -28.24691 -70.26434 34077 ft 444 kts 327°
2026-04-07 14:04 -28.19106 -70.29423 34069 ft 443 kts 327°
2026-04-07 14:05 -28.13528 -70.32408 34058 ft 443 kts 327°
2026-04-07 14:05 -28.07956 -70.35387 34031 ft 443 kts 327°
2026-04-07 14:06 -28.02378 -70.38360 34036 ft 442 kts 327°
2026-04-07 14:06 -27.96805 -70.41326 34043 ft 442 kts 327°
2026-04-07 14:07 -27.91233 -70.44292 34047 ft 442 kts 327°
2026-04-07 14:07 -27.85699 -70.47237 34056 ft 442 kts 327°
2026-04-07 14:08 -27.80133 -70.50192 34042 ft 442 kts 328°
2026-04-07 14:08 -27.74572 -70.53144 34051 ft 441 kts 327°
2026-04-07 14:09 -27.69950 -70.55596 34061 ft 441 kts 328°
2026-04-07 14:09 -27.64388 -70.58536 34064 ft 441 kts 328°
2026-04-07 14:10 -27.58830 -70.61480 34072 ft 440 kts 328°
2026-04-07 14:10 -27.53287 -70.64414 34051 ft 440 kts 328°
2026-04-07 14:11 -27.47728 -70.67344 34060 ft 440 kts 328°
2026-04-07 14:11 -27.42211 -70.70240 34064 ft 440 kts 328°
2026-04-07 14:12 -27.36664 -70.73155 34063 ft 440 kts 328°
2026-04-07 14:12 -27.31105 -70.76075 34072 ft 440 kts 328°
2026-04-07 14:13 -27.25377 -70.78615 34059 ft 447 kts 336°
2026-04-07 14:13 -27.19398 -70.80607 34061 ft 447 kts 336°
2026-04-07 14:14 -27.13424 -70.82576 34063 ft 447 kts 336°
2026-04-07 14:14 -27.07494 -70.84540 34064 ft 447 kts 336°
2026-04-07 14:15 -27.01533 -70.86518 34064 ft 447 kts 336°
2026-04-07 14:15 -26.95564 -70.88494 34069 ft 447 kts 337°
2026-04-07 14:16 -26.89600 -70.90466 34072 ft 447 kts 337°
2026-04-07 14:16 -26.83641 -70.92439 34071 ft 446 kts 337°
2026-04-07 14:17 -26.77680 -70.94406 34069 ft 446 kts 337°
2026-04-07 14:17 -26.71717 -70.96374 34062 ft 446 kts 337°
2026-04-07 14:18 -26.65758 -70.98329 34069 ft 446 kts 337°
2026-04-07 14:18 -26.59798 -71.00283 34069 ft 446 kts 337°
2026-04-07 14:19 -26.53884 -71.02227 34067 ft 446 kts 337°
2026-04-07 14:19 -26.47929 -71.04188 34071 ft 446 kts 337°
2026-04-07 14:20 -26.41981 -71.06144 34057 ft 445 kts 337°
2026-04-07 14:20 -26.36154 -71.08365 34062 ft 436 kts 327°
2026-04-07 14:21 -26.31047 -71.11803 34074 ft 431 kts 322°
2026-04-07 14:21 -26.25957 -71.15347 34067 ft 431 kts 322°
2026-04-07 14:22 -26.20857 -71.18886 34064 ft 432 kts 322°
2026-04-07 14:22 -26.15757 -71.22422 34061 ft 431 kts 322°
2026-04-07 14:23 -26.10665 -71.25945 34066 ft 431 kts 322°
2026-04-07 14:23 -26.05577 -71.29463 34067 ft 430 kts 322°
2026-04-07 14:24 -26.00526 -71.32955 34072 ft 430 kts 322°
2026-04-07 14:24 -25.95443 -71.36472 34073 ft 430 kts 322°
2026-04-07 14:25 -25.90353 -71.39980 34061 ft 430 kts 322°
2026-04-07 14:25 -25.85269 -71.43481 34068 ft 430 kts 322°
2026-04-07 14:26 -25.80179 -71.46983 34072 ft 430 kts 322°
2026-04-07 14:26 -25.75121 -71.50455 34073 ft 429 kts 322°
2026-04-07 14:27 -25.70039 -71.53951 34073 ft 429 kts 322°
2026-04-07 14:27 -25.64951 -71.57443 34061 ft 429 kts 321°
2026-04-07 14:28 -25.59882 -71.60925 34071 ft 428 kts 321°
2026-04-07 14:28 -25.54808 -71.64407 34070 ft 428 kts 321°
2026-04-07 14:29 -25.49744 -71.67876 34072 ft 428 kts 321°
2026-04-07 14:29 -25.44676 -71.71340 34077 ft 428 kts 321°
2026-04-07 14:30 -25.39604 -71.74797 34061 ft 428 kts 321°
2026-04-07 14:30 -25.34570 -71.78237 34073 ft 428 kts 321°
2026-04-07 14:31 -25.29494 -71.81694 34077 ft 428 kts 321°
2026-04-07 14:31 -25.24427 -71.85147 34079 ft 428 kts 321°
2026-04-07 14:32 -25.19354 -71.88594 34084 ft 428 kts 321°
2026-04-07 14:32 -25.14318 -71.92013 34084 ft 428 kts 321°
2026-04-07 14:33 -25.09246 -71.95449 34071 ft 427 kts 321°
2026-04-07 14:33 -25.04186 -71.98891 34078 ft 427 kts 321°
2026-04-07 14:34 -24.99122 -72.02316 34083 ft 427 kts 321°
2026-04-07 14:34 -24.94059 -72.05741 34085 ft 427 kts 321°
2026-04-07 14:35 -24.88996 -72.09165 34080 ft 427 kts 321°
2026-04-07 14:35 -24.83968 -72.12568 34065 ft 427 kts 321°
2026-04-07 14:36 -24.78897 -72.15990 34072 ft 427 kts 321°
2026-04-07 14:36 -24.73819 -72.19403 34077 ft 427 kts 321°
2026-04-07 14:37 -24.68745 -72.22813 34076 ft 427 kts 321°
2026-04-07 14:37 -24.63682 -72.26227 34077 ft 426 kts 321°
2026-04-07 14:38 -24.58621 -72.29637 34074 ft 426 kts 321°
2026-04-07 14:38 -24.53585 -72.33016 34064 ft 427 kts 321°
2026-04-07 14:39 -24.45969 -72.38122 34072 ft 427 kts 321°
2026-04-07 14:40 -24.40900 -72.41524 34077 ft 427 kts 321°
2026-04-07 14:40 -24.35854 -72.44909 34079 ft 427 kts 321°
2026-04-07 14:41 -24.30768 -72.48307 34081 ft 427 kts 321°
2026-04-07 14:41 -24.25684 -72.51702 34083 ft 427 kts 321°
2026-04-07 14:42 -24.20601 -72.55096 34084 ft 427 kts 321°
2026-04-07 14:42 -24.15548 -72.58465 34085 ft 428 kts 322°
2026-04-07 14:43 -24.10456 -72.61845 34090 ft 428 kts 322°
2026-04-07 14:43 -24.05369 -72.65224 34090 ft 427 kts 322°
2026-04-07 14:44 -24.00284 -72.68611 34068 ft 427 kts 322°
2026-04-07 14:44 -23.95203 -72.71990 34077 ft 427 kts 322°
2026-04-07 14:45 -23.90119 -72.75369 34083 ft 428 kts 322°
2026-04-07 14:45 -23.85028 -72.78742 34085 ft 428 kts 322°
2026-04-07 14:46 -23.79965 -72.82091 34093 ft 428 kts 322°
2026-04-07 14:46 -23.74875 -72.85462 34090 ft 428 kts 322°
2026-04-07 14:47 -23.69779 -72.88832 34079 ft 428 kts 322°
2026-04-07 14:47 -23.64689 -72.92194 34088 ft 428 kts 322°
2026-04-07 14:48 -23.59598 -72.95557 34094 ft 428 kts 322°
2026-04-07 14:48 -23.54538 -72.98896 34096 ft 427 kts 322°
2026-04-07 14:49 -23.49452 -73.02246 34096 ft 427 kts 322°
2026-04-07 14:49 -23.44366 -73.05592 34079 ft 427 kts 322°
2026-04-07 14:50 -23.39287 -73.08943 34084 ft 427 kts 323°
2026-04-07 14:50 -23.34200 -73.12287 34087 ft 427 kts 323°
2026-04-07 14:51 -23.29106 -73.15621 34089 ft 427 kts 323°
2026-04-07 14:51 -23.24015 -73.18953 34092 ft 427 kts 323°
2026-04-07 14:52 -23.18969 -73.22263 34092 ft 426 kts 323°
2026-04-07 14:52 -23.13885 -73.25595 34075 ft 426 kts 323°
2026-04-07 14:53 -23.08804 -73.28922 34081 ft 426 kts 323°
2026-04-07 14:53 -23.03721 -73.32244 34085 ft 426 kts 323°
2026-04-07 14:54 -22.98635 -73.35562 34087 ft 426 kts 323°
2026-04-07 14:54 -22.93540 -73.38882 34089 ft 426 kts 323°
2026-04-07 14:55 -22.88448 -73.42198 34091 ft 426 kts 323°
2026-04-07 14:55 -22.83399 -73.45480 34077 ft 426 kts 324°
2026-04-07 14:56 -22.78311 -73.48793 34082 ft 426 kts 324°
2026-04-07 14:56 -22.73221 -73.52105 34085 ft 426 kts 324°
2026-04-07 14:57 -22.68133 -73.55418 34094 ft 427 kts 324°
2026-04-07 14:57 -22.63037 -73.58724 34089 ft 427 kts 324°
2026-04-07 14:58 -22.57945 -73.62020 34095 ft 426 kts 324°
2026-04-07 14:58 -22.52855 -73.65324 34091 ft 427 kts 324°
2026-04-07 14:59 -22.47759 -73.68619 34097 ft 426 kts 324°
2026-04-07 14:59 -22.42697 -73.71890 34089 ft 426 kts 324°
2026-04-07 15:00 -22.37598 -73.75181 34089 ft 426 kts 324°
2026-04-07 15:00 -22.32501 -73.78475 34097 ft 426 kts 324°
2026-04-07 15:01 -22.28263 -73.81205 34104 ft 426 kts 324°
2026-04-07 15:01 -22.23170 -73.84489 34082 ft 427 kts 324°
2026-04-07 15:02 -22.18071 -73.87782 34084 ft 427 kts 324°
2026-04-07 15:02 -22.12962 -73.91071 34082 ft 427 kts 324°
2026-04-07 15:03 -22.07890 -73.94332 34085 ft 427 kts 324°
2026-04-07 15:03 -22.02776 -73.97614 34092 ft 428 kts 325°
2026-04-07 15:04 -21.97661 -74.00896 34077 ft 428 kts 325°
2026-04-07 15:04 -21.92538 -74.04180 34084 ft 428 kts 325°
2026-04-07 15:05 -21.87443 -74.07438 34079 ft 428 kts 325°
2026-04-07 15:05 -21.82320 -74.10720 34075 ft 428 kts 325°
2026-04-07 15:06 -21.77189 -74.14009 34081 ft 429 kts 325°
2026-04-07 15:06 -21.72054 -74.17289 34086 ft 429 kts 325°
2026-04-07 15:07 -21.66911 -74.20566 34077 ft 430 kts 326°
2026-04-07 15:07 -21.61793 -74.23825 34079 ft 431 kts 326°
2026-04-07 15:08 -21.56630 -74.27113 34082 ft 431 kts 325°
2026-04-07 15:08 -21.51471 -74.30412 34083 ft 431 kts 325°
2026-04-07 15:09 -21.46309 -74.33704 34084 ft 431 kts 326°
2026-04-07 15:09 -21.41147 -74.36981 34086 ft 431 kts 326°
2026-04-07 15:10 -21.36015 -74.40236 34090 ft 431 kts 326°
2026-04-07 15:10 -21.30859 -74.43518 34093 ft 431 kts 326°
2026-04-07 15:11 -21.25692 -74.46794 34094 ft 431 kts 326°
2026-04-07 15:11 -21.20568 -74.50043 34098 ft 430 kts 326°
2026-04-07 15:12 -21.15138 -74.52807 34097 ft 437 kts 340°
2026-04-07 15:12 -21.09277 -74.54608 34088 ft 437 kts 340°
2026-04-07 15:13 -21.03474 -74.56421 34071 ft 438 kts 340°
2026-04-07 15:13 -20.97617 -74.58248 34072 ft 439 kts 340°
2026-04-07 15:14 -20.91743 -74.60073 34079 ft 439 kts 340°
2026-04-07 15:14 -20.85859 -74.61892 34086 ft 439 kts 340°
2026-04-07 15:15 -20.79984 -74.63710 34085 ft 439 kts 340°
2026-04-07 15:15 -20.74148 -74.65516 34080 ft 439 kts 340°
2026-04-07 15:16 -20.68278 -74.67327 34079 ft 439 kts 340°
2026-04-07 15:16 -20.62403 -74.69141 34079 ft 439 kts 340°
2026-04-07 15:17 -20.56532 -74.70955 34078 ft 440 kts 340°
2026-04-07 15:17 -20.50649 -74.72775 34079 ft 440 kts 340°
2026-04-07 15:18 -20.44765 -74.74593 34074 ft 440 kts 340°
2026-04-07 15:18 -20.38916 -74.76391 34069 ft 440 kts 340°
2026-04-07 15:19 -20.33020 -74.78201 34070 ft 441 kts 340°
2026-04-07 15:19 -20.27122 -74.80016 34069 ft 441 kts 340°
2026-04-07 15:20 -20.21229 -74.81826 34071 ft 441 kts 340°
2026-04-07 15:20 -20.15329 -74.83635 34073 ft 441 kts 340°
2026-04-07 15:21 -20.09422 -74.85447 34063 ft 442 kts 341°
2026-04-07 15:21 -20.03550 -74.87248 34060 ft 442 kts 341°
2026-04-07 15:22 -19.97628 -74.89061 34063 ft 443 kts 341°
2026-04-07 15:22 -19.91700 -74.90877 34066 ft 443 kts 341°
2026-04-07 15:23 -19.85769 -74.92690 34071 ft 443 kts 341°
2026-04-07 15:23 -19.79837 -74.94504 34064 ft 444 kts 341°
2026-04-07 15:24 -19.73938 -74.96302 34067 ft 444 kts 341°
2026-04-07 15:24 -19.67994 -74.98116 34072 ft 444 kts 341°
2026-04-07 15:25 -19.62050 -74.99932 34072 ft 444 kts 341°
2026-04-07 15:25 -19.56110 -75.01746 34074 ft 444 kts 341°
2026-04-07 15:26 -19.50161 -75.03560 34068 ft 444 kts 341°
2026-04-07 15:26 -19.44222 -75.05367 34066 ft 444 kts 341°
2026-04-07 15:27 -19.38323 -75.07153 34075 ft 444 kts 341°
2026-04-07 15:27 -19.32380 -75.08958 34075 ft 444 kts 341°
2026-04-07 15:28 -19.26439 -75.10758 34071 ft 444 kts 341°
2026-04-07 15:28 -19.20499 -75.12556 34071 ft 444 kts 341°
2026-04-07 15:29 -19.14561 -75.14355 34065 ft 443 kts 341°
2026-04-07 15:29 -19.08628 -75.16147 34063 ft 443 kts 341°
2026-04-07 15:30 -19.02738 -75.17930 34062 ft 442 kts 341°
2026-04-07 15:30 -18.96817 -75.19718 34062 ft 442 kts 341°
2026-04-07 15:31 -18.90901 -75.21512 34064 ft 442 kts 341°
2026-04-07 15:31 -18.84987 -75.23302 34050 ft 442 kts 341°
2026-04-07 15:32 -18.79114 -75.25077 34048 ft 442 kts 341°
2026-04-07 15:32 -18.73189 -75.26860 34050 ft 442 kts 341°
2026-04-07 15:33 -18.67265 -75.28639 34050 ft 442 kts 341°
2026-04-07 15:33 -18.61338 -75.30420 34053 ft 442 kts 341°
2026-04-07 15:34 -18.55421 -75.32213 34052 ft 442 kts 341°
2026-04-07 15:34 -18.49533 -75.33979 34043 ft 443 kts 341°
2026-04-07 15:35 -18.43599 -75.35754 34044 ft 443 kts 341°
2026-04-07 15:35 -18.37666 -75.37535 34042 ft 443 kts 341°
2026-04-07 15:36 -18.31726 -75.39303 34043 ft 443 kts 342°
2026-04-07 15:36 -18.25763 -75.40991 34044 ft 443 kts 342°
2026-04-07 15:37 -18.19833 -75.42644 34049 ft 444 kts 342°
2026-04-07 15:37 -18.13872 -75.44317 34047 ft 443 kts 342°
2026-04-07 15:38 -18.07922 -75.45997 34049 ft 443 kts 342°
2026-04-07 15:38 -18.01972 -75.47682 34048 ft 442 kts 342°
2026-04-07 15:39 -17.96021 -75.49370 34047 ft 442 kts 342°
2026-04-07 15:39 -17.90121 -75.51039 34046 ft 442 kts 342°
2026-04-07 15:40 -17.84165 -75.52714 34039 ft 443 kts 342°
2026-04-07 15:40 -17.78214 -75.54392 34038 ft 443 kts 342°
2026-04-07 15:41 -17.72249 -75.56072 34040 ft 443 kts 342°
2026-04-07 15:41 -17.66277 -75.57743 34036 ft 443 kts 342°
2026-04-07 15:42 -17.60353 -75.59412 34034 ft 443 kts 342°
2026-04-07 15:42 -17.51408 -75.61934 34026 ft 444 kts 342°
2026-04-07 15:43 -17.45437 -75.63606 34024 ft 444 kts 343°
2026-04-07 15:43 -17.39461 -75.65275 34032 ft 444 kts 343°
2026-04-07 15:44 -17.33498 -75.66943 34022 ft 443 kts 342°
2026-04-07 15:44 -17.27533 -75.68619 34021 ft 443 kts 342°
2026-04-07 15:45 -17.21612 -75.70281 34022 ft 443 kts 343°
2026-04-07 15:45 -17.15643 -75.71951 34019 ft 444 kts 342°
2026-04-07 15:46 -17.09666 -75.73624 34015 ft 444 kts 343°
2026-04-07 15:46 -17.03723 -75.75278 34019 ft 444 kts 343°
2026-04-07 15:47 -16.97748 -75.76948 34021 ft 444 kts 343°
2026-04-07 15:47 -16.91767 -75.78619 34025 ft 444 kts 342°
2026-04-07 15:48 -16.85788 -75.80289 34022 ft 444 kts 343°
2026-04-07 15:48 -16.79843 -75.81941 34023 ft 444 kts 343°
2026-04-07 15:49 -16.73874 -75.83599 34025 ft 444 kts 343°
2026-04-07 15:49 -16.67906 -75.85262 34022 ft 444 kts 343°
2026-04-07 15:50 -16.61937 -75.86926 34023 ft 444 kts 343°
2026-04-07 15:50 -16.55964 -75.88585 34020 ft 444 kts 344°
2026-04-07 15:51 -16.49987 -75.90240 34009 ft 445 kts 343°
2026-04-07 15:51 -16.44005 -75.91900 34010 ft 445 kts 343°
2026-04-07 15:52 -16.38052 -75.93560 34008 ft 445 kts 343°
2026-04-07 15:52 -16.32062 -75.95217 34009 ft 446 kts 343°
2026-04-07 15:53 -16.26061 -75.96873 34014 ft 446 kts 343°
2026-04-07 15:53 -16.20067 -75.98534 34004 ft 446 kts 343°
2026-04-07 15:54 -16.14066 -76.00197 34007 ft 446 kts 343°
2026-04-07 15:54 -16.08063 -76.01859 34009 ft 446 kts 344°
2026-04-07 15:55 -16.02057 -76.03520 34006 ft 446 kts 344°
2026-04-07 15:55 -15.97067 -76.04896 34010 ft 446 kts 344°
2026-04-07 15:56 -15.90083 -76.06821 34009 ft 447 kts 344°
2026-04-07 15:56 -15.85049 -76.08211 34007 ft 447 kts 344°
2026-04-07 15:57 -15.79069 -76.09856 34008 ft 447 kts 344°
2026-04-07 15:57 -15.73055 -76.11513 34007 ft 447 kts 344°
2026-04-07 15:58 -15.67037 -76.13174 34009 ft 447 kts 344°
2026-04-07 15:58 -15.61023 -76.14830 34013 ft 447 kts 344°
2026-04-07 15:59 -15.55004 -76.16485 34015 ft 447 kts 344°
2026-04-07 15:59 -15.49031 -76.18129 34019 ft 446 kts 344°
2026-04-07 16:00 -15.43032 -76.19779 34014 ft 446 kts 344°
2026-04-07 16:00 -15.37023 -76.21425 34018 ft 445 kts 344°
2026-04-07 16:01 -15.31030 -76.23063 34014 ft 445 kts 344°
2026-04-07 16:01 -15.25031 -76.24704 34013 ft 445 kts 344°
2026-04-07 16:02 -15.19040 -76.26355 34006 ft 445 kts 344°
2026-04-07 16:02 -15.13048 -76.28002 34003 ft 446 kts 344°
2026-04-07 16:03 -15.07045 -76.29647 34003 ft 446 kts 344°
2026-04-07 16:03 -15.01078 -76.31280 34004 ft 446 kts 345°
2026-04-07 16:04 -14.95065 -76.32916 34002 ft 446 kts 345°
2026-04-07 16:04 -14.89058 -76.34555 34005 ft 446 kts 344°
2026-04-07 16:05 -14.83053 -76.36197 34008 ft 446 kts 345°
2026-04-07 16:05 -14.77085 -76.37823 34009 ft 446 kts 345°
2026-04-07 16:06 -14.71085 -76.39460 34007 ft 446 kts 345°
2026-04-07 16:06 -14.65081 -76.41095 34008 ft 446 kts 345°
2026-04-07 16:07 -14.59077 -76.42733 34006 ft 446 kts 345°
2026-04-07 16:07 -14.53067 -76.44368 33997 ft 446 kts 345°
2026-04-07 16:08 -14.47098 -76.45998 33993 ft 447 kts 345°
2026-04-07 16:08 -14.41081 -76.47633 33995 ft 447 kts 345°
2026-04-07 16:09 -14.35064 -76.49276 33995 ft 447 kts 345°
2026-04-07 16:09 -14.29040 -76.50912 34002 ft 447 kts 345°
2026-04-07 16:10 -14.23019 -76.52535 33997 ft 447 kts 345°
2026-04-07 16:10 -14.17031 -76.54127 33996 ft 447 kts 346°
2026-04-07 16:11 -14.11014 -76.55722 33993 ft 446 kts 345°
2026-04-07 16:11 -14.04999 -76.57329 33994 ft 446 kts 345°
2026-04-07 16:12 -13.98995 -76.58937 33993 ft 446 kts 345°
2026-04-07 16:12 -13.92993 -76.60542 33984 ft 445 kts 345°
2026-04-07 16:13 -13.87024 -76.62130 33986 ft 445 kts 345°
2026-04-07 16:13 -13.81025 -76.63726 33987 ft 445 kts 346°
2026-04-07 16:14 -13.75039 -76.65325 33998 ft 444 kts 346°
2026-04-07 16:14 -13.69063 -76.66927 33994 ft 443 kts 346°
2026-04-07 16:15 -13.63091 -76.68518 33990 ft 443 kts 346°
2026-04-07 16:15 -13.57154 -76.70093 33989 ft 443 kts 346°
2026-04-07 16:16 -13.51189 -76.71676 33990 ft 443 kts 346°
2026-04-07 16:16 -13.45224 -76.73259 33987 ft 443 kts 346°
2026-04-07 16:17 -13.39259 -76.74840 33985 ft 442 kts 346°
2026-04-07 16:17 -13.33295 -76.76425 33985 ft 442 kts 346°
2026-04-07 16:18 -13.27325 -76.78008 33985 ft 442 kts 346°
2026-04-07 16:18 -13.21359 -76.79595 33991 ft 442 kts 346°
2026-04-07 16:19 -13.15434 -76.81164 33991 ft 442 kts 346°
2026-04-07 16:19 -13.09469 -76.82741 33987 ft 442 kts 347°
2026-04-07 16:20 -13.03506 -76.84317 33987 ft 442 kts 347°
2026-04-07 16:20 -12.97583 -76.85890 33980 ft 442 kts 347°
2026-04-07 16:21 -12.91629 -76.87467 33984 ft 442 kts 347°
2026-04-07 16:21 -12.85674 -76.89032 33981 ft 442 kts 347°
2026-04-07 16:22 -12.79718 -76.90606 33976 ft 442 kts 347°
2026-04-07 16:22 -12.73763 -76.92180 33969 ft 442 kts 347°
2026-04-07 16:23 -12.67794 -76.93755 33964 ft 443 kts 347°
2026-04-07 16:23 -12.61821 -76.95332 33976 ft 443 kts 347°
2026-04-07 16:24 -12.55841 -76.96905 33972 ft 443 kts 347°
2026-04-07 16:24 -12.49861 -76.98483 33974 ft 444 kts 347°
2026-04-07 16:25 -12.43925 -77.00052 33961 ft 444 kts 347°
2026-04-07 16:25 -12.37940 -77.01637 33964 ft 444 kts 347°
2026-04-07 16:26 -12.31957 -77.03206 33973 ft 444 kts 347°
2026-04-07 16:26 -12.25966 -77.04772 33976 ft 444 kts 347°
2026-04-07 16:27 -12.19979 -77.06341 33982 ft 444 kts 347°
2026-04-07 16:27 -12.13994 -77.07920 33989 ft 444 kts 347°
2026-04-07 16:28 -12.08049 -77.09483 33986 ft 444 kts 347°
2026-04-07 16:28 -12.02172 -77.11434 33987 ft 446 kts 336°
2026-04-07 16:29 -11.96591 -77.14212 33989 ft 446 kts 336°
2026-04-07 16:29 -11.90996 -77.16977 33967 ft 446 kts 336°
2026-04-07 16:30 -11.85392 -77.19740 33982 ft 446 kts 336°
2026-04-07 16:30 -11.79796 -77.22502 33984 ft 446 kts 336°
2026-04-07 16:31 -11.74198 -77.25260 33988 ft 447 kts 336°
2026-04-07 16:31 -11.68624 -77.28002 33984 ft 447 kts 336°
2026-04-07 16:32 -11.63017 -77.30765 33984 ft 447 kts 336°
2026-04-07 16:32 -11.57411 -77.33529 33997 ft 447 kts 336°
2026-04-07 16:33 -11.51800 -77.36301 33997 ft 447 kts 336°
2026-04-07 16:33 -11.46192 -77.39062 33994 ft 448 kts 336°
2026-04-07 16:34 -11.40579 -77.41823 33991 ft 448 kts 336°
2026-04-07 16:34 -11.34971 -77.44585 33992 ft 448 kts 336°
2026-04-07 16:35 -11.29390 -77.47330 34011 ft 447 kts 336°
2026-04-07 16:35 -11.23775 -77.50090 34011 ft 447 kts 336°
2026-04-07 16:36 -11.18164 -77.52856 33995 ft 448 kts 336°
2026-04-07 16:36 -11.12588 -77.55598 33994 ft 447 kts 336°
2026-04-07 16:37 -11.06975 -77.58349 33995 ft 447 kts 336°
2026-04-07 16:37 -11.01359 -77.61103 34011 ft 447 kts 336°
2026-04-07 16:38 -10.95750 -77.63853 34007 ft 447 kts 336°
2026-04-07 16:38 -10.90140 -77.66604 34004 ft 447 kts 336°
2026-04-07 16:39 -10.84574 -77.69335 34007 ft 447 kts 336°
2026-04-07 16:39 -10.78971 -77.72079 34007 ft 447 kts 336°
2026-04-07 16:40 -10.73360 -77.74823 34031 ft 447 kts 336°
2026-04-07 16:40 -10.67788 -77.77554 34027 ft 447 kts 337°
2026-04-07 16:41 -10.62178 -77.80301 34050 ft 448 kts 337°
2026-04-07 16:41 -10.56567 -77.83050 34034 ft 448 kts 337°
2026-04-07 16:42 -10.50941 -77.85801 34040 ft 448 kts 337°
2026-04-07 16:42 -10.45307 -77.88557 34061 ft 448 kts 337°
2026-04-07 16:43 -10.39714 -77.91287 34068 ft 449 kts 337°
2026-04-07 16:43 -10.34084 -77.94036 34087 ft 449 kts 337°
2026-04-07 16:44 -10.28449 -77.96785 34063 ft 449 kts 337°
2026-04-07 16:44 -10.22813 -77.99540 34061 ft 449 kts 337°
2026-04-07 16:45 -10.17206 -78.02278 34084 ft 450 kts 337°
2026-04-07 16:45 -10.11559 -78.05032 34079 ft 450 kts 337°
2026-04-07 16:46 -10.05918 -78.07795 34108 ft 450 kts 337°
2026-04-07 16:46 -10.00269 -78.10547 34068 ft 450 kts 337°
2026-04-07 16:47 -9.94655 -78.13284 34067 ft 450 kts 337°
2026-04-07 16:47 -9.89011 -78.16046 34086 ft 451 kts 337°
2026-04-07 16:48 -9.83360 -78.18800 34085 ft 450 kts 337°
2026-04-07 16:49 -9.75807 -78.22492 34109 ft 450 kts 337°
2026-04-07 16:49 -9.70159 -78.25246 34075 ft 451 kts 337°
2026-04-07 16:50 -9.64537 -78.27986 34075 ft 451 kts 337°
2026-04-07 16:50 -9.58885 -78.30740 34067 ft 451 kts 337°
2026-04-07 16:51 -9.53227 -78.33487 34066 ft 450 kts 337°
2026-04-07 16:51 -9.47576 -78.36240 34049 ft 450 kts 337°
2026-04-07 16:52 -9.41957 -78.38971 34030 ft 450 kts 337°
2026-04-07 16:52 -9.36302 -78.41717 33979 ft 450 kts 337°
2026-04-07 16:53 -9.30650 -78.44472 33970 ft 450 kts 337°
2026-04-07 16:53 -9.25001 -78.47221 33962 ft 450 kts 338°
2026-04-07 16:54 -9.19347 -78.49963 33966 ft 450 kts 338°
2026-04-07 16:54 -9.13698 -78.52712 33973 ft 451 kts 336°
2026-04-07 16:55 -9.08163 -78.55714 33975 ft 452 kts 334°
2026-04-07 16:55 -9.02731 -78.58858 33994 ft 452 kts 333°
2026-04-07 16:56 -8.97250 -78.61995 33994 ft 452 kts 334°
2026-04-07 16:56 -8.91744 -78.65069 33991 ft 452 kts 334°
2026-04-07 16:57 -8.86227 -78.68127 34031 ft 452 kts 335°
2026-04-07 16:57 -8.80746 -78.71174 33970 ft 452 kts 335°
2026-04-07 16:58 -8.75225 -78.74251 33994 ft 453 kts 335°
2026-04-07 16:58 -8.69704 -78.77332 33993 ft 453 kts 335°
2026-04-07 16:59 -8.64176 -78.80415 33995 ft 454 kts 335°
2026-04-07 16:59 -8.58643 -78.83493 34043 ft 454 kts 335°
2026-04-07 17:00 -8.53148 -78.86552 33974 ft 454 kts 334°
2026-04-07 17:00 -8.47621 -78.89638 34019 ft 453 kts 335°
2026-04-07 17:01 -8.42095 -78.92722 34020 ft 453 kts 335°
2026-04-07 17:01 -8.36570 -78.95796 34016 ft 453 kts 335°
2026-04-07 17:02 -8.31041 -78.98858 33985 ft 453 kts 335°
2026-04-07 17:02 -8.25524 -79.01926 33988 ft 453 kts 334°
2026-04-07 17:03 -8.20040 -79.04986 33991 ft 453 kts 334°
2026-04-07 17:03 -8.14518 -79.08057 33996 ft 453 kts 335°
2026-04-07 17:04 -8.08887 -79.10849 33991 ft 447 kts 345°
2026-04-07 17:04 -8.02843 -79.12005 33991 ft 441 kts 356°
2026-04-07 17:05 -7.96748 -79.12761 33989 ft 441 kts 356°
2026-04-07 17:05 -7.90694 -79.13530 33980 ft 441 kts 356°
2026-04-07 17:06 -7.84602 -79.14300 33979 ft 441 kts 356°
2026-04-07 17:06 -7.78507 -79.15077 33976 ft 441 kts 356°
2026-04-07 17:07 -7.72413 -79.15849 33982 ft 441 kts 356°
2026-04-07 17:07 -7.66307 -79.16612 33981 ft 441 kts 356°
2026-04-07 17:08 -7.60207 -79.17379 33981 ft 441 kts 356°
2026-04-07 17:08 -7.54106 -79.18153 33983 ft 441 kts 356°
2026-04-07 17:09 -7.48051 -79.18922 33982 ft 441 kts 356°
2026-04-07 17:09 -7.41953 -79.19696 33991 ft 441 kts 356°
2026-04-07 17:10 -7.35861 -79.20460 33991 ft 441 kts 356°
2026-04-07 17:10 -7.29777 -79.21223 34003 ft 440 kts 356°
2026-04-07 17:11 -7.23689 -79.21989 33999 ft 440 kts 356°
2026-04-07 17:11 -7.17624 -79.22753 33996 ft 439 kts 356°
2026-04-07 17:12 -7.11540 -79.23522 34027 ft 443 kts 356°
2026-04-07 17:12 -7.08473 -79.23909 34244 ft 445 kts 356°
2026-04-07 17:12 -7.05444 -79.24290 34576 ft 443 kts 356°
2026-04-07 17:12 -7.02388 -79.24674 34919 ft 442 kts 356°
2026-04-07 17:13 -6.99344 -79.25055 35273 ft 440 kts 356°
2026-04-07 17:13 -6.96310 -79.25436 35608 ft 438 kts 355°
2026-04-07 17:13 -6.93284 -79.25817 35923 ft 438 kts 355°
2026-04-07 17:14 -6.87243 -79.26580 36014 ft 436 kts 355°
2026-04-07 17:14 -6.81224 -79.27335 36018 ft 435 kts 355°
2026-04-07 17:15 -6.75212 -79.28090 35976 ft 435 kts 355°
2026-04-07 17:15 -6.69193 -79.28845 35985 ft 436 kts 355°
2026-04-07 17:16 -6.63169 -79.29605 35993 ft 436 kts 355°
2026-04-07 17:16 -6.57149 -79.30364 36018 ft 436 kts 355°
2026-04-07 17:17 -6.51156 -79.31110 36025 ft 437 kts 355°
2026-04-07 17:17 -6.45123 -79.31868 36029 ft 437 kts 355°
2026-04-07 17:18 -6.39094 -79.32632 36047 ft 436 kts 355°
2026-04-07 17:18 -6.33059 -79.33396 36054 ft 436 kts 355°
2026-04-07 17:19 -6.27026 -79.34147 36067 ft 437 kts 355°
2026-04-07 17:19 -6.21026 -79.34901 36068 ft 437 kts 355°
2026-04-07 17:20 -6.14992 -79.35662 36068 ft 437 kts 355°
2026-04-07 17:20 -6.08953 -79.36415 36084 ft 437 kts 355°
2026-04-07 17:21 -6.02915 -79.37171 36084 ft 437 kts 355°
2026-04-07 17:21 -5.96880 -79.37925 36088 ft 437 kts 355°
2026-04-07 17:22 -5.90848 -79.38681 36088 ft 437 kts 355°
2026-04-07 17:22 -5.84807 -79.39438 36082 ft 437 kts 355°
2026-04-07 17:23 -5.78804 -79.40194 36085 ft 437 kts 355°
2026-04-07 17:23 -5.72765 -79.40955 36087 ft 437 kts 355°
2026-04-07 17:24 -5.66729 -79.41709 36095 ft 437 kts 355°
2026-04-07 17:24 -5.60693 -79.42460 36096 ft 437 kts 355°
2026-04-07 17:25 -5.54660 -79.43220 36075 ft 437 kts 355°
2026-04-07 17:25 -5.48627 -79.43983 36092 ft 436 kts 355°
2026-04-07 17:26 -5.42605 -79.44734 36092 ft 436 kts 355°
2026-04-07 17:26 -5.36620 -79.45476 36109 ft 435 kts 355°
2026-04-07 17:27 -5.30605 -79.46228 36109 ft 435 kts 355°
2026-04-07 17:27 -5.24587 -79.46979 36109 ft 435 kts 355°
2026-04-07 17:28 -5.18572 -79.47722 36121 ft 436 kts 355°
2026-04-07 17:28 -5.12548 -79.48477 36117 ft 436 kts 355°
2026-04-07 17:29 -5.06534 -79.49233 36130 ft 436 kts 355°
2026-04-07 17:29 -5.00514 -79.49992 36128 ft 436 kts 355°
2026-04-07 17:30 -4.94496 -79.50744 36127 ft 436 kts 355°
2026-04-07 17:30 -4.88470 -79.51498 36127 ft 436 kts 355°
2026-04-07 17:31 -4.82485 -79.52249 36122 ft 436 kts 355°
2026-04-07 17:31 -4.76449 -79.52998 36103 ft 436 kts 355°
2026-04-07 17:32 -4.70414 -79.53750 36108 ft 437 kts 354°
2026-04-07 17:32 -4.64364 -79.54504 36103 ft 438 kts 355°
2026-04-07 17:33 -4.58318 -79.55252 36107 ft 438 kts 354°
2026-04-07 17:33 -4.52309 -79.56008 36108 ft 437 kts 354°
2026-04-07 17:34 -4.46262 -79.56771 36089 ft 438 kts 354°
2026-04-07 17:34 -4.40219 -79.57547 36055 ft 438 kts 354°
2026-04-07 17:35 -4.34172 -79.58318 36053 ft 438 kts 354°
2026-04-07 17:35 -4.28128 -79.59096 36054 ft 438 kts 354°
2026-04-07 17:36 -4.22083 -79.59880 36054 ft 438 kts 354°
2026-04-07 17:36 -4.16065 -79.60654 36081 ft 438 kts 354°
2026-04-07 17:37 -4.10020 -79.61427 36088 ft 438 kts 354°
2026-04-07 17:37 -4.03976 -79.62201 36090 ft 438 kts 354°
2026-04-07 17:38 -3.97929 -79.62975 35867 ft 437 kts 354°
2026-04-07 17:38 -3.94908 -79.63366 35591 ft 437 kts 354°
2026-04-07 17:38 -3.91923 -79.63751 34879 ft 441 kts 355°
2026-04-07 17:38 -3.88867 -79.64142 34268 ft 442 kts 355°
2026-04-07 17:39 -3.85824 -79.64529 33749 ft 440 kts 355°
2026-04-07 17:39 -3.82800 -79.64914 33243 ft 436 kts 355°
2026-04-07 17:39 -3.79795 -79.65301 32723 ft 434 kts 355°
2026-04-07 17:39 -3.76803 -79.65687 32213 ft 431 kts 355°
2026-04-07 17:40 -3.74835 -79.65941 31882 ft 430 kts 355°
2026-04-07 17:40 -3.71877 -79.66322 31382 ft 427 kts 355°
2026-04-07 17:40 -3.68936 -79.66699 30889 ft 425 kts 356°
2026-04-07 17:40 -3.66001 -79.67074 30385 ft 424 kts 356°
2026-04-07 17:41 -3.63078 -79.67448 29848 ft 423 kts 355°
2026-04-07 17:41 -3.60170 -79.67821 29351 ft 420 kts 355°
2026-04-07 17:41 -3.57284 -79.68190 28865 ft 417 kts 355°
2026-04-07 17:41 -3.54417 -79.68556 28403 ft 414 kts 355°
2026-04-07 17:42 -3.51571 -79.68917 27936 ft 411 kts 355°
2026-04-07 17:42 -3.48744 -79.69278 27427 ft 408 kts 355°
2026-04-07 17:42 -3.45939 -79.69639 26979 ft 405 kts 355°
2026-04-07 17:42 -3.43146 -79.69998 26550 ft 403 kts 354°
2026-04-07 17:43 -3.40404 -79.70350 26120 ft 401 kts 353°
2026-04-07 17:43 -3.37638 -79.70707 25688 ft 399 kts 354°
2026-04-07 17:43 -3.34886 -79.71062 25257 ft 397 kts 355°
2026-04-07 17:43 -3.32147 -79.71413 24832 ft 396 kts 354°
2026-04-07 17:44 -3.29412 -79.71762 24410 ft 395 kts 353°
2026-04-07 17:44 -3.26686 -79.72110 23975 ft 394 kts 353°
2026-04-07 17:44 -3.23960 -79.72459 23458 ft 395 kts 353°
2026-04-07 17:44 -3.21240 -79.72805 22967 ft 393 kts 353°
2026-04-07 17:45 -3.18531 -79.73151 22510 ft 392 kts 353°
2026-04-07 17:45 -3.15833 -79.73497 22044 ft 390 kts 353°
2026-04-07 17:45 -3.13143 -79.73841 21559 ft 388 kts 353°
2026-04-07 17:45 -3.10460 -79.74184 21088 ft 387 kts 353°
2026-04-07 17:46 -3.07831 -79.74523 20612 ft 385 kts 353°
2026-04-07 17:46 -3.05179 -79.74865 20138 ft 383 kts 353°
2026-04-07 17:46 -3.02538 -79.75203 19655 ft 382 kts 353°
2026-04-07 17:46 -2.99908 -79.75539 19160 ft 380 kts 353°
2026-04-07 17:47 -2.97289 -79.75874 18693 ft 378 kts 353°
2026-04-07 17:47 -2.94687 -79.76206 18230 ft 376 kts 353°
2026-04-07 17:47 -2.92098 -79.76537 17740 ft 372 kts 354°
2026-04-07 17:47 -2.89531 -79.76868 17204 ft 371 kts 353°
2026-04-07 17:48 -2.87014 -79.77194 16740 ft 368 kts 354°
2026-04-07 17:48 -2.84490 -79.77560 16254 ft 366 kts 348°
2026-04-07 17:48 -2.82172 -79.78593 15779 ft 368 kts 324°
2026-04-07 17:48 -2.80438 -79.80469 15287 ft 370 kts 301°
2026-04-07 17:49 -2.79593 -79.82894 14778 ft 371 kts 276°
2026-04-07 17:49 -2.79440 -79.85465 14229 ft 372 kts 272°
2026-04-07 17:49 -2.79334 -79.88028 13830 ft 366 kts 273°
2026-04-07 17:49 -2.78912 -79.90520 13330 ft 363 kts 291°
2026-04-07 17:50 -2.77685 -79.92683 12872 ft 356 kts 312°
2026-04-07 17:50 -2.75808 -79.94251 12417 ft 350 kts 333°
2026-04-07 17:50 -2.73597 -79.95078 11822 ft 342 kts 348°
2026-04-07 17:50 -2.71278 -79.95584 11192 ft 338 kts 349°
2026-04-07 17:51 -2.69011 -79.96063 10735 ft 328 kts 349°
2026-04-07 17:51 -2.66802 -79.96530 10319 ft 320 kts 348°
2026-04-07 17:51 -2.64651 -79.96988 9991 ft 309 kts 348°
2026-04-07 17:51 -2.62579 -79.97431 9643 ft 301 kts 349°
2026-04-07 17:52 -2.60562 -79.97865 9392 ft 296 kts 348°
2026-04-07 17:52 -2.58555 -79.98297 8911 ft 294 kts 348°
2026-04-07 17:52 -2.56561 -79.98727 8427 ft 292 kts 348°
2026-04-07 17:52 -2.54567 -79.99156 7924 ft 295 kts 348°
2026-04-07 17:53 -2.52562 -79.99587 7577 ft 294 kts 347°
2026-04-07 17:53 -2.48600 -80.00439 6936 ft 291 kts 347°
2026-04-07 17:53 -2.46624 -80.00865 6617 ft 290 kts 347°
2026-04-07 17:54 -2.44656 -80.01292 6303 ft 288 kts 347°
2026-04-07 17:54 -2.42697 -80.01716 5991 ft 287 kts 347°
2026-04-07 17:54 -2.40730 -80.01936 5636 ft 284 kts
2026-04-07 17:54 -2.38807 -80.01569 5048 ft 282 kts 20°
2026-04-07 17:55 -2.37070 -80.00676 4410 ft 281 kts 30°
2026-04-07 17:55 -2.35376 -79.99689 3805 ft 279 kts 30°
2026-04-07 17:55 -2.33745 -79.98743 3593 ft 262 kts 30°
2026-04-07 17:55 -2.32226 -79.97865 3461 ft 242 kts 30°
2026-04-07 17:56 -2.30827 -79.97059 3348 ft 223 kts 29°
2026-04-07 17:56 -2.29498 -79.96295 3017 ft 217 kts 29°
2026-04-07 17:56 -2.28211 -79.95555 2704 ft 209 kts 29°
2026-04-07 17:56 -2.26974 -79.94842 2436 ft 200 kts 29°
2026-04-07 17:57 -2.25799 -79.94165 2168 ft 191 kts 30°
2026-04-07 17:57 -2.24677 -79.93519 1893 ft 185 kts 29°
2026-04-07 17:57 -2.23575 -79.92885 1648 ft 179 kts 30°
2026-04-07 17:57 -2.22528 -79.92281 1399 ft 167 kts 29°
2026-04-07 17:58 -2.21561 -79.91726 1200 ft 153 kts 29°
2026-04-07 17:58 -2.20665 -79.91210 994 ft 145 kts 29°
2026-04-07 17:58 -2.19802 -79.90715 806 ft 142 kts 30°
2026-04-07 17:58 -2.18952 -79.90227 586 ft 140 kts 32°
2026-04-07 17:59 -2.18117 -79.89743 371 ft 137 kts 31°
2026-04-07 17:59 -2.17296 -79.89269 203 ft 137 kts 31°
2026-04-07 17:59 -2.16478 -79.88795 39 ft 135 kts 31°
2026-04-07 17:59 -2.15769 -79.88382 26 ft 97 kts 31°
2026-04-07 18:00 -2.15335 -79.88132 27 ft 49 kts 30°
2026-04-07 18:00 -2.15080 -79.87982 28 ft 40 kts 30°
2026-04-07 18:00 -2.14868 -79.87862 28 ft 32 kts 30°
2026-04-07 18:00 -2.14710 -79.87770 27 ft 16 kts 29°
2026-04-07 18:01 -2.14646 -79.87770 28 ft 11 kts 317°
2026-04-07 18:01 -2.14640 -79.87845 28 ft 13 kts 257°
2026-04-07 18:01 -2.14675 -79.87933 29 ft 15 kts 230°
2026-04-07 18:01 -2.14767 -79.87994 29 ft 17 kts 210°
2026-04-07 18:02 -2.14835 -79.88061 29 ft 13 kts 270°
2026-04-07 18:02 -2.14792 -79.88147 29 ft 14 kts 300°
2026-04-07 18:02 -2.14825 -79.88220 29 ft 14 kts 211°
2026-04-07 18:02 -2.14884 -79.88254 29 ft 7 kts 210°
2026-04-07 18:03 -2.14935 -79.88283 29 ft 10 kts 210°
2026-04-07 18:03 -2.14979 -79.88311 29 ft 1 kts 234°
2026-04-07 18:03 -2.14971 -79.88321 29 ft 3 kts 307°
2026-04-07 18:03 -2.14954 -79.88346 29 ft 6 kts 301°
2026-04-07 18:04 -2.14940 -79.88380 29 ft 3 kts 277°
2026-04-07 18:04 -2.14940 -79.88389 29 ft 0 kts 273°